Regional Weather Roundup
Issued by NWS

Home | Current Version | Previous Version | Text Only | Print | Product List | Glossary Off
Versions: 1 2 3 4 5 6 7 8 9 10 11 12 13 14 15 16 17 18 19 20 21 22 23 24 25 26 27 28 29 30 31 32 33 34 35 36 37 38 39 40 41 42 43 44 45 46 47 48 49 50

000
ASUS43 KLOT 172258
RWRIL

ILLINOIS REGIONAL WEATHER ROUNDUP
NATIONAL WEATHER SERVICE CHICAGO/ROMEOVILLE IL
600 PM CDT THU APR 17 2014

NOTE: "FAIR" INDICATES FEW OR NO CLOUDS BELOW 12,000 FEET WITH NO
SIGNIFICANT WEATHER AND/OR OBSTRUCTIONS TO VISIBILITY.

* THESE STATIONS ARE NOT UNDER NWS QUALITY CONTROL. THEY ALSO MAY NOT
  REPORT WEATHER SUCH AS PRECIPITATION OR FOG.

ILZ001-002-007-009-015-016-024-180000-
NORTHWEST ILLINOIS

CITY           SKY/WX    TMP DP  RH WIND       PRES   REMARKS
MOLINE         PTSUNNY   54  34  46 W10       30.23S
$$

ILZ003-004-008-010-011-017-018-180000-
NORTH CENTRAL ILLINOIS

CITY           SKY/WX    TMP DP  RH WIND       PRES   REMARKS
ROCKFORD       NOT AVBL
$$

ILZ005-006-012>014-019>023-180000-
NORTHEAST ILLINOIS

CITY           SKY/WX    TMP DP  RH WIND       PRES   REMARKS
CHICAGO-OHARE  CLOUDY    59  37  44 W9        30.20R
CHICAGO-MIDWAY CLOUDY    60  40  47 W12       30.20S
AURORA         PTSUNNY   56  38  50 SW8       30.21S
WAUKEGAN       MOSUNNY   57  37  47 VRB5      30.19S
DUPAGE AIRPORT PTSUNNY   57  38  48 SW14      30.20S
WHEELING       MOSUNNY   59  38  45 W9        30.21R
NORTHERLY ISL    N/A     60  37  42 W6          N/A
$$

LMZ740>746-180000-
SOUTHERN LAKE MICHIGAN

STATION/POSITION SKY/WX   TEMP    WIND        PRES    VSBY  WAVE
                          AIR SEA DIR/SP/G                  HT/PER
                          (F)     (DEG/KT/KT) (MB)    (MI)  (FT/S)
WAUKEGAN HARBOR            58     270/ 10/ 12 1023.7R
HARRISON CRIB              58     250/ 12/ 15   N/A
BURNHAM HARBOR             59     230/  3/ 13   N/A
CALUMET HARBOR             60     230/  6/ 12 1023.3R
MICHIGAN CITY              50     250/  2/  4   N/A
$$

ILZ025>027-034>036-040-047-049-050-058-095>099-180000-
WEST-CENTRAL ILLINOIS

CITY           SKY/WX    TMP DP  RH WIND       PRES   REMARKS
QUINCY         CLOUDY    51  35  54 NW3       30.27R
$$

ILZ028>032-037-038-041>044-048-051>054-059>061-180000-
CENTRAL ILLINOIS

CITY           SKY/WX    TMP DP  RH WIND       PRES   REMARKS
PEORIA         NOT AVBL
SPRINGFIELD    CLOUDY    59  37  44 W9        30.25R
TAYLORVILLE    NOT AVBL
$$

ILZ033-039-045-046-055>057-062-063-180000-
EAST-CENTRAL ILLINOIS

CITY           SKY/WX    TMP DP  RH WIND       PRES   REMARKS
CHAMPAIGN      CLOUDY    64  37  36 SW10      30.23R
MATTOON        PTSUNNY   64  36  35 SW7       30.22S
$$

ILZ079-100>102-180000-
SOUTHWEST ILLINOIS

CITY           SKY/WX    TMP DP  RH WIND       PRES   REMARKS
CAHOKIA*       PTSUNNY   67  40  37 NE8       30.22R
$$

ILZ064>066-069>071-074>076-080>082-084>086-088>090-092>094-180000-
SOUTH-CENTRAL ILLINOIS

CITY           SKY/WX    TMP DP  RH WIND       PRES   REMARKS
CARBONDALE     SUNNY     65  39  38 S9        30.23R
MARION         MOSUNNY   66  39  37 S9        30.25R
$$

ILZ067-068-072-073-078-083-087-091-180000-
SOUTHEAST ILLINOIS

CITY           SKY/WX    TMP DP  RH WIND       PRES   REMARKS
$$

ABBREVIATIONS USED IN REMARKS
   TC - TEMPERATURE IN CELSIUS
  WCI - WIND CHILL INDEX
   HX - HEAT INDEX
  VSB - VISIBILITY
$$




USA.gov is the U.S. government's official web portal to all federal, state and local government web resources and services.